Regional Weather Roundup
Issued by NWS

Home | Current Version | Previous Version | Text Only | Print | Product List | Glossary Off
Versions: 1 2 3 4 5 6 7 8 9 10 11 12 13 14 15 16 17 18 19 20 21 22 23 24 25 26 27

000
ASUS45 KBOU 230510
RWRCO

WEATHER ROUNDUP FOR COLORADO
NATIONAL WEATHER SERVICE DENVER/BOULDER CO
1000 PM MST WED NOV 22 2017

NOTE: "FAIR" INDICATES FEW OR NO CLOUDS BELOW 12000 FEET WITH NO
SIGNIFICANT WEATHER AND/OR OBSTRUCTIONS TO VISIBILITY.

COZ001>005-013-030-031-230600-
...NORTHWEST COLORADO...

CITY           SKY/WX    TMP DP  RH WIND       PRES   REMARKS
CRAIG          FAIR      33  29  85 CALM      30.43F
HAYDEN         CLOUDY    40  35  83 E8        30.45S
MEEKER         FAIR      38  34  85 SE5       30.45S
RABBIT EARS PA FOG      N/A N/A N/A W7        30.55S VSB 3/4
STEAMBOAT SPGS CLOUDY    37  36  94 CALM      30.46R
WALDEN         FAIR      34  30  86 E3        30.48S
$$

COZ006>008-011-230600-
...WEST CENTRAL VALLEYS...

CITY           SKY/WX    TMP DP  RH WIND       PRES   REMARKS
GRAND JUNCTION FAIR      43  31  62 SE8       30.40S
MONTROSE       FAIR      37  31  78 S6        30.46S
EAGLE          FAIR      34  30  85 CALM      30.50F
RIFLE          FAIR      39  34  82 CALM      30.45S
DELTA          FAIR      44  31  60 E3        30.44S
NUCLA          FAIR      43  30  61 CALM      30.47R
$$

COZ017>023-064>068-230600-
...SOUTHWEST COLORADO...

CITY           SKY/WX    TMP DP  RH WIND       PRES   REMARKS
DURANGO        FAIR      32  22  66 CALM      30.39F
CORTEZ         FAIR      37  28  70 NE8       30.39R
PAGOSA SPRINGS FAIR      39  23  52 CALM      30.43S
TELLURIDE      FAIR      37  30  77 SE3       30.54S
WOLF CREEK PAS FAIR      36  19  51 NW9G17    30.65S
$$

COZ009-010-012-014-032>034-037-058>063-230600-
...CENTRAL COLORADO...

CITY           SKY/WX    TMP DP  RH WIND       PRES   REMARKS
ASPEN          FAIR      36  32  85 S7        30.49F
BUENA VISTA    FAIR      40  32  74 W13       30.45S
COPPER MTN     SNOW      34  32  93 MISG      30.62S VSB 1/4
BERTHOUD PASS  CLOUDY    28  18  64 NW26      30.58S WCI  13
COTTONWOOD PAS FAIR      45  34  65 NW13G28   30.51F
GUNNISON       NOT AVBL
KREMMLING      MOCLDY    37  34  87 CALM      30.49S
LEADVILLE      MOCLDY    35  30  82 NW6       30.53R WCI  30
MONARCH PASS   FAIR      32  28  86 NW17      30.72F WCI  21
SALIDA         FAIR      49  34  57 N7        30.49S
SUNLIGHT       FAIR      34  30  86 NW3       30.64S
WILKERSON PASS FAIR      34  28  80 NW10G23   30.56F WCI  26
$$

COZ069>075-230600-
...SAN LUIS VALLEY/SANGRE DE CRISTO MOUNTAINS...

CITY           SKY/WX    TMP DP  RH WIND       PRES   REMARKS
ALAMOSA        FAIR      38  28  67 CALM      30.43R
DEL NORTE      FAIR      41  28  61 CALM      30.44S
LA VETA PASS   FAIR      36  27  69 SW9         N/A
SAGUACHE       FAIR      41  32  70 NW10      30.45S
$$

COZ035-036-038>040-230600-
...NORTHERN COLORADO FRONT RANGE...

CITY           SKY/WX    TMP DP  RH WIND       PRES   REMARKS
DENVER INTL AP FAIR      48  34  58 SW8       30.26S
DMNS CITY PARK   N/A     50  34  53 E7        30.27S
AURORA         PTCLDY    47  35  61 S7        30.28R
FRONT RANGE AP FAIR      50  37  59 SW9       30.28S
ERIE MUNI ARPT FAIR      40  33  76 CALM      30.31R
BOULDER MUN AP FAIR      55  32  41 W3        30.25S
CENTENNIAL     FAIR      44  34  67 S5        30.28S
BROOMFIELD     FAIR      57  34  41 NW16      30.28R
FORT COLLINS   FAIR      45  36  70 S6        30.25S
LONGMONT       FAIR      41  33  74 W6        30.27
$$

COZ041-046-047-076>085-087-088-230600-
...PIKES PEAK/PALMER DIVIDE AND SOUTHERN FOOTHILLS...

CITY           SKY/WX    TMP DP  RH WIND       PRES   REMARKS
COLO. SPRINGS  FAIR      48  32  53 N9        30.31F
A. F. ACADEMY  FAIR      38  31  74 N5        30.32S
SCHRIEVER AFB  FAIR      48  31  50 N7        30.31S
CHEYENNE MTN   FAIR      50  30  46 CALM      30.28F
ELLICOTT         N/A      1  32 100 N7        30.30S WCI -12
FALCON         FAIR      42  32  66 NW8       30.34S
FORT CARSON    FAIR      52  31  45 W5        30.29S
LIMON          FAIR      42  34  73 W13       30.27S
MONUMENT HILL  FAIR      41  32  70 W6        30.35F
CANON CITY     FAIR      52  34  50 W9        30.29F
WALSENBURG     FAIR      50  32  50 W6        30.31S
TRINIDAD       FAIR      45  28  51 W12       30.29S
$$

COZ042>045-048>051-090-091-230600-
...NORTHEAST COLORADO...

CITY           SKY/WX    TMP DP  RH WIND       PRES   REMARKS
GREELEY ARPT   FAIR      43  34  70 SW5       30.25S
AKRON          FAIR      52  37  56 NW14      30.22S
BURLINGTON     FAIR      41  33  73 W8        30.20S
WRAY           NOT AVBL
YUMA           FAIR      43  34  70 W8        30.18F
STERLING       FAIR      46  37  71 NW6       30.18S
HOLYOKE        FAIR      48  37  66 W12       30.16S
FORT MORGAN    FAIR      55  36  48 NW17      30.23S
$$

COZ086-089-092>099-230600-
...SOUTHEAST COLORADO...

CITY           SKY/WX    TMP DP  RH WIND       PRES   REMARKS
PUEBLO         FAIR      43  29  57 W5        30.25S
LA JUNTA       FAIR      48  30  49 W10       30.22F
LAMAR          FAIR      37  24  59 CALM      30.18S
SPRINGFIELD      N/A     43  28  55 W7        30.22S
$$




USA.gov is the U.S. government's official web portal to all federal, state and local government web resources and services.